Location: Miles
(41.4492°N, 81.6087°W)
Time: 19:32:26
(UTC+00:00)

Transit 2A - Pass Details

Date: 16 September 2024
Orbit: 590 x 960 km, 66.7° (Epoch: 05 October)

Event Time Altitude Azimuth Distance (km) Brightness Sun altitude
Rises 22:17:30 0° 171° (S) 3,362 9.3 13.3°
Reaches altitude 10° 22:20:17 10° 158° (SSE) 2,492 8.6 12.8°
Maximum altitude 22:24:54 25° 105° (ESE) 1,747 7.5 11.9°
Drops below altitude 10° 22:29:47 10° 54° (NE) 2,655 8.3 11.0°
Sets 22:32:49 0° 41° (NE) 3,631 9.0 10.4°
